Flag for U.S.A. Weather past 2 weeks in Buffalo, New York, U.S.A.

Now
63 °F

Passing clouds.


Feels Like: 63 °F
Forecast: 66 / 79 °F
Wind: 7 mph from South

Location: Greater Buffalo International Airport

Current Time: Aug 2, 2015 at 6:54:42 AM

Latest Report: Aug 2, 2015 at 5:54 AM


Visibility: 10 mi

Pressure: 29.85 "Hg

Humidity: 78%

Dew point: 56 °F

Location of BuffaloLocation

Historic Weather in Buffalo — Graph

°F

Buffalo temperature yesterday

Maximum temperature yesterday: 77 °F (at 1:54 PM)
Minimum temperature yesterday: 66 °F (at 2:54 AM)
Average temperature yesterday: 71 °F

Past Weeks' High & Low Weather Summary

 TemperatureHumidityPressure
High90 °F (Jul 29, 1:54 PM)91% (Jul 18, 7:54 AM)30.03 "Hg (Jul 18, 7:54 AM)
Low58 °F (Jul 23, 5:54 AM)30% (Jul 23, 5:54 PM)29.63 "Hg (Jul 21, 4:54 AM)
Average74 °F63%29.88 "Hg
* Reported Jul 18 4:54 AM — Aug 2 4:54 AM, Buffalo, Weather by CustomWeather, © 2015

Note: Actual official high and low records may vary slightly from our data, if they occured in-between our weather recording intervals... More about our weather records

Advertising

Buffalo weather history for previous 24 hours

 ConditionsComfort  
Time TempWeatherWind HumidityBarometerVisibility
4:54 AM
Sun, Aug 2
62 °FPassing clouds.7 mph83%29.85 "Hg10 mi
3:54 AM63 °FPassing clouds.6 mph81%29.85 "Hg10 mi
2:54 AM63 °FPassing clouds.6 mph78%29.85 "Hg10 mi
1:54 AM64 °FPassing clouds.6 mph78%29.85 "Hg10 mi
12:54 AM66 °FPassing clouds.6 mph78%29.86 "Hg10 mi
11:54 PM
Sat, Aug 1
67 °FPassing clouds.6 mph73%29.85 "Hg10 mi
10:54 PM69 °FPassing clouds.6 mph68%29.86 "Hg10 mi
9:54 PM70 °FPassing clouds.10 mph64%29.86 "Hg10 mi
8:54 PM71 °FScattered clouds.10 mph55%29.85 "Hg10 mi
7:54 PM70 °FBroken clouds.9 mph66%29.85 "Hg10 mi
6:54 PM71 °FThunderstorms. Partly sunny.17 mph57%29.84 "Hg10 mi
5:54 PM74 °FBroken clouds.15 mph50%29.84 "Hg10 mi
4:54 PM75 °FScattered clouds.15 mph48%29.83 "Hg10 mi
3:54 PM71 °FThunderstorms. Broken clouds.15 mph66%29.86 "Hg10 mi
2:54 PM77 °FBroken clouds.13 mph50%29.84 "Hg10 mi
1:54 PM77 °FBroken clouds.16 mph50%29.85 "Hg10 mi
12:54 PM76 °FPartly sunny.15 mph50%29.86 "Hg10 mi
11:54 AM76 °FPartly sunny.15 mph42%29.87 "Hg10 mi
10:54 AM73 °FScattered clouds.12 mph50%29.86 "Hg10 mi
9:54 AM72 °FPassing clouds.10 mph53%29.86 "Hg10 mi
8:54 AM70 °FPassing clouds.9 mph66%29.86 "Hg10 mi
7:54 AM68 °FPassing clouds.7 mph76%29.85 "Hg10 mi
6:54 AM66 °FPassing clouds.6 mph78%29.84 "Hg10 mi
Weather by CustomWeather, © 2015

See weather overviewHow to use our weather pages